N8289A LGSK-LGSK

Flight info

Callsign N8289A
Flight time N/A
Altitude 2000
Route SKP
Aircraft P28A/L-SFG/C

Departure

Time 2026-04-21 18:16
Airport Skiathos Island National Airport (LGSK)

Arrival

Time N/A
Airport Skiathos Island National Airport (LGSK)
Time Latitude Longitude Altitude Speed Heading
2026-04-21 18:16 39.15582 23.55517 1381 ft 102 kts 197°
2026-04-21 18:16 39.14995 23.55309 1399 ft 103 kts 198°
2026-04-21 18:17 39.14302 23.55061 1426 ft 102 kts 198°
2026-04-21 18:17 39.13688 23.54636 1378 ft 100 kts 226°
2026-04-21 18:17 39.13321 23.53904 1328 ft 96 kts 253°
2026-04-21 18:17 39.13264 23.53045 1217 ft 95 kts 279°
2026-04-21 18:18 39.13402 23.52214 1069 ft 95 kts 287°
2026-04-21 18:18 39.13575 23.51409 981 ft 92 kts 289°
2026-04-21 18:18 39.13772 23.50612 839 ft 93 kts 294°
2026-04-21 18:18 39.14002 23.49857 694 ft 90 kts 297°
2026-04-21 18:19 39.14351 23.49238 597 ft 85 kts 326°
2026-04-21 18:19 39.14892 23.49060 467 ft 79 kts 11°
2026-04-21 18:19 39.15390 23.49325 306 ft 74 kts 21°
2026-04-21 18:19 39.15858 23.49552 232 ft 70 kts 18°
2026-04-21 18:20 39.16296 23.49741 176 ft 64 kts 17°
2026-04-21 18:20 39.16608 23.49874 121 ft 62 kts 18°
2026-04-21 18:21 39.16855 23.49982 74 ft 62 kts 18°
2026-04-21 18:22 39.17251 23.50161 19 ft 52 kts 18°
2026-04-21 18:22 39.17540 23.50289 34 ft 54 kts 18°
2026-04-21 18:22 39.17965 23.50466 236 ft 63 kts 14°
2026-04-21 18:22 39.18409 23.50618 411 ft 68 kts 12°
2026-04-21 18:23 39.18902 23.50717 578 ft 72 kts
2026-04-21 18:23 39.19354 23.51000 746 ft 74 kts 43°
2026-04-21 18:23 39.19605 23.51603 891 ft 79 kts 73°
2026-04-21 18:23 39.19555 23.52324 1024 ft 87 kts 104°
2026-04-21 18:24 39.19364 23.53074 1145 ft 91 kts 105°
2026-04-21 18:24 39.19170 23.53863 1280 ft 92 kts 114°
2026-04-21 18:24 39.18727 23.54472 1405 ft 95 kts 145°
2026-04-21 18:24 39.18118 23.54765 1552 ft 93 kts 172°
2026-04-21 18:25 39.17481 23.54784 1672 ft 94 kts 194°
2026-04-21 18:25 39.16855 23.54583 1823 ft 92 kts 195°
2026-04-21 18:25 39.16237 23.54399 1960 ft 91 kts 197°
2026-04-21 18:25 39.15626 23.54185 2117 ft 89 kts 197°
2026-04-21 18:26 39.15006 23.54019 2235 ft 92 kts 193°
2026-04-21 18:26 39.14383 23.53929 2408 ft 91 kts 186°
2026-04-21 18:26 39.13749 23.54104 2517 ft 96 kts 160°
2026-04-21 18:26 39.13149 23.54458 2656 ft 95 kts 157°
2026-04-21 18:27 39.12555 23.54835 2799 ft 94 kts 158°
2026-04-21 18:27 39.11973 23.55215 2914 ft 96 kts 153°
2026-04-21 18:27 39.11413 23.55686 3045 ft 96 kts 145°
2026-04-21 18:27 39.10933 23.56304 3175 ft 98 kts 134°
2026-04-21 18:28 39.10495 23.56978 3299 ft 98 kts 131°
2026-04-21 18:28 39.10026 23.57618 3405 ft 98 kts 142°
2026-04-21 18:28 39.09439 23.58015 3509 ft 96 kts 165°
2026-04-21 18:28 39.08807 23.58288 3640 ft 95 kts 164°
2026-04-21 18:29 39.08192 23.58622 3744 ft 97 kts 158°
2026-04-21 18:29 39.07614 23.59076 3858 ft 98 kts 152°
2026-04-21 18:29 39.07005 23.59459 3955 ft 97 kts 166°
2026-04-21 18:29 39.06348 23.59564 4054 ft 94 kts 182°
2026-04-21 18:30 39.05700 23.59561 4159 ft 93 kts 189°
2026-04-21 18:30 39.05058 23.59534 4268 ft 94 kts 182°
2026-04-21 18:30 39.04621 23.59562 4339 ft 93 kts 185°
2026-04-21 18:30 39.03975 23.59581 4439 ft 95 kts 181°
2026-04-21 18:31 39.03326 23.59632 4457 ft 94 kts 185°
2026-04-21 18:31 39.02672 23.59690 4471 ft 93 kts 180°
2026-04-21 18:31 39.02035 23.59781 4492 ft 92 kts 180°
2026-04-21 18:31 39.01402 23.59865 4514 ft 91 kts 181°
2026-04-21 18:32 39.00772 23.59945 4530 ft 91 kts 181°
2026-04-21 18:32 39.00147 23.60199 4524 ft 96 kts 163°
2026-04-21 18:32 38.99538 23.60510 4530 ft 95 kts 167°
2026-04-21 18:32 38.98918 23.60804 4543 ft 95 kts 166°
2026-04-21 18:33 38.98296 23.61097 4557 ft 95 kts 166°
2026-04-21 18:33 38.97678 23.61386 4569 ft 95 kts 166°
2026-04-21 18:33 38.97060 23.61676 4579 ft 94 kts 166°
2026-04-21 18:33 38.96441 23.61964 4586 ft 95 kts 166°
2026-04-21 18:34 38.95820 23.62255 4589 ft 96 kts 163°
2026-04-21 18:34 38.95351 23.62897 4569 ft 100 kts 130°
2026-04-21 18:34 38.94919 23.63596 4581 ft 100 kts 130°
2026-04-21 18:34 38.94499 23.64301 4590 ft 99 kts 131°
2026-04-21 18:35 38.94081 23.65009 4598 ft 99 kts 131°
2026-04-21 18:35 38.93663 23.65714 4612 ft 99 kts 131°
2026-04-21 18:35 38.93241 23.66416 4624 ft 99 kts 131°
2026-04-21 18:35 38.92820 23.67119 4637 ft 99 kts 131°
2026-04-21 18:36 38.92399 23.67822 4646 ft 99 kts 131°
2026-04-21 18:36 38.91982 23.68512 4653 ft 99 kts 131°
2026-04-21 18:36 38.91560 23.69212 4660 ft 99 kts 131°
2026-04-21 18:36 38.91138 23.69910 4670 ft 98 kts 131°
2026-04-21 18:37 38.90614 23.70435 4658 ft 95 kts 158°
2026-04-21 18:37 38.90058 23.70902 4666 ft 95 kts 151°
2026-04-21 18:37 38.89499 23.71358 4673 ft 95 kts 151°
2026-04-21 18:37 38.88937 23.71814 4714 ft 96 kts 155°
2026-04-21 18:38 38.88329 23.72159 4810 ft 95 kts 164°
2026-04-21 18:38 38.87689 23.72382 4924 ft 94 kts 174°
2026-04-21 18:38 38.87060 23.72523 5069 ft 93 kts 177°
2026-04-21 18:38 38.86417 23.72627 5207 ft 92 kts 179°
2026-04-21 18:39 38.85769 23.72655 5319 ft 94 kts 186°
2026-04-21 18:39 38.85137 23.72631 5464 ft 91 kts 189°
2026-04-21 18:39 38.84501 23.72509 5540 ft 92 kts 195°
2026-04-21 18:39 38.83875 23.72373 5613 ft 91 kts 197°
2026-04-21 18:40 38.83228 23.72385 5672 ft 97 kts 172°
2026-04-21 18:40 38.82595 23.72644 5765 ft 96 kts 164°
2026-04-21 18:40 38.82188 23.72916 5797 ft 100 kts 155°
2026-04-21 18:40 38.81391 23.73468 5911 ft 98 kts 156°
2026-04-21 18:41 38.80762 23.73825 5946 ft 99 kts 169°
2026-04-21 18:41 38.80113 23.74076 6040 ft 97 kts 169°
2026-04-21 18:41 38.79456 23.74331 6110 ft 97 kts 169°
2026-04-21 18:41 38.78802 23.74521 6164 ft 97 kts 175°
2026-04-21 18:42 38.78135 23.74541 6232 ft 94 kts 189°
2026-04-21 18:42 38.77475 23.74644 6279 ft 99 kts 175°
2026-04-21 18:42 38.76818 23.74803 6365 ft 97 kts 172°
2026-04-21 18:42 38.76171 23.75135 6392 ft 101 kts 163°
2026-04-21 18:43 38.75511 23.75432 6436 ft 100 kts 169°
2026-04-21 18:43 38.74832 23.75630 6464 ft 99 kts 176°
2026-04-21 18:43 38.74159 23.75800 6514 ft 99 kts 174°
2026-04-21 18:43 38.73477 23.75881 6541 ft 97 kts 185°
2026-04-21 18:44 38.72805 23.75829 6579 ft 97 kts 192°
2026-04-21 18:44 38.72137 23.75718 6600 ft 99 kts 193°
2026-04-21 18:44 38.71441 23.75627 6628 ft 100 kts 187°
2026-04-21 18:44 38.70746 23.75694 6646 ft 101 kts 178°
2026-04-21 18:45 38.70056 23.75716 6626 ft 100 kts 188°
2026-04-21 18:45 38.69359 23.75687 6585 ft 100 kts 186°
2026-04-21 18:45 38.68676 23.75636 6549 ft 98 kts 190°
2026-04-21 18:45 38.67961 23.75555 6517 ft 105 kts 190°
2026-04-21 18:46 38.67267 23.75416 6641 ft 99 kts 195°
2026-04-21 18:46 38.66604 23.75195 6632 ft 98 kts 202°
2026-04-21 18:46 38.65963 23.74900 6659 ft 97 kts 206°
2026-04-21 18:46 38.65322 23.74593 6675 ft 100 kts 203°
2026-04-21 18:47 38.64639 23.74317 6644 ft 106 kts 198°
2026-04-21 18:47 38.63918 23.74152 6657 ft 104 kts 189°
2026-04-21 18:47 38.63181 23.74244 6626 ft 109 kts 171°
2026-04-21 18:47 38.62456 23.74505 6642 ft 107 kts 171°
2026-04-21 18:48 38.61715 23.74616 6637 ft 108 kts 182°
2026-04-21 18:48 38.60977 23.74751 6658 ft 109 kts 173°
2026-04-21 18:48 38.60224 23.74823 6661 ft 108 kts 190°
2026-04-21 18:48 38.59488 23.74630 6630 ft 106 kts 198°
2026-04-21 18:49 38.58797 23.74300 6580 ft 107 kts 212°
2026-04-21 18:49 38.58182 23.73812 6578 ft 102 kts 217°
2026-04-21 18:49 38.57778 23.73484 6526 ft 106 kts 216°
2026-04-21 18:49 38.56942 23.72854 6508 ft 103 kts 213°
2026-04-21 18:50 38.56332 23.72371 6441 ft 105 kts 219°
2026-04-21 18:50 38.55771 23.71786 6419 ft 104 kts 223°
2026-04-21 18:50 38.55209 23.71151 6286 ft 112 kts 223°
2026-04-21 18:50 38.54544 23.70661 6248 ft 110 kts 210°
2026-04-21 18:51 38.53858 23.70221 6186 ft 111 kts 208°
2026-04-21 18:51 38.53178 23.69764 6115 ft 110 kts 213°
2026-04-21 18:51 38.52536 23.69258 6021 ft 110 kts 218°
2026-04-21 18:51 38.51892 23.68730 5962 ft 110 kts 215°
2026-04-21 18:52 38.51213 23.68272 5911 ft 110 kts 211°
2026-04-21 18:52 38.50539 23.67811 5851 ft 109 kts 213°
2026-04-21 18:52 38.49888 23.67316 5786 ft 110 kts 218°
2026-04-21 18:52 38.49260 23.66768 5743 ft 108 kts 217°
2026-04-21 18:53 38.48647 23.66203 5688 ft 109 kts 221°
2026-04-21 18:53 38.48056 23.65603 5655 ft 107 kts 223°
2026-04-21 18:53 38.47480 23.64984 5564 ft 109 kts 225°
2026-04-21 18:53 38.46964 23.64307 5368 ft 104 kts 233°
2026-04-21 18:54 38.46458 23.63618 5010 ft 108 kts 228°
2026-04-21 18:54 38.45918 23.62985 4744 ft 106 kts 228°
2026-04-21 18:54 38.45365 23.62359 4443 ft 106 kts 225°
2026-04-21 18:54 38.44757 23.61833 4135 ft 107 kts 214°
2026-04-21 18:55 38.44304 23.61559 3933 ft 106 kts 209°
2026-04-21 18:55 38.43400 23.61100 3562 ft 105 kts 206°
2026-04-21 18:55 38.42712 23.60782 3258 ft 105 kts 207°
2026-04-21 18:55 38.42033 23.60438 2983 ft 104 kts 207°
2026-04-21 18:56 38.41364 23.60106 2725 ft 103 kts 206°
2026-04-21 18:56 38.40704 23.59799 2501 ft 101 kts 206°
2026-04-21 18:56 38.40035 23.59486 2236 ft 102 kts 207°
2026-04-21 18:56 38.39389 23.59143 2002 ft 102 kts 207°
2026-04-21 18:57 38.38756 23.58769 1886 ft 97 kts 210°
2026-04-21 18:57 38.38151 23.58400 1816 ft 94 kts 208°
2026-04-21 18:57 38.37561 23.58026 1713 ft 93 kts 211°
2026-04-21 18:57 38.36943 23.57746 1622 ft 94 kts 200°
2026-04-21 18:58 38.36336 23.57463 1578 ft 93 kts 204°
2026-04-21 18:58 38.35742 23.57146 1554 ft 91 kts 206°
2026-04-21 18:58 38.35123 23.56863 1525 ft 96 kts 201°
2026-04-21 18:58 38.34505 23.56578 1553 ft 94 kts 201°
2026-04-21 18:59 38.33880 23.56303 1576 ft 94 kts 201°
2026-04-21 18:59 38.33259 23.56005 1581 ft 95 kts 202°
2026-04-21 18:59 38.32649 23.55751 1610 ft 94 kts 197°
2026-04-21 18:59 38.31979 23.55796 1573 ft 98 kts 159°
2026-04-21 19:00 38.31499 23.56400 1513 ft 102 kts 120°
2026-04-21 19:00 38.31262 23.57238 1540 ft 100 kts 108°
2026-04-21 19:00 38.31137 23.58109 1503 ft 98 kts 102°
2026-04-21 19:00 38.30951 23.58935 1480 ft 97 kts 110°
2026-04-21 19:01 38.30748 23.59755 1461 ft 96 kts 107°
2026-04-21 19:01 38.30552 23.60573 1415 ft 96 kts 110°
2026-04-21 19:01 38.30343 23.61358 1361 ft 95 kts 109°
2026-04-21 19:01 38.30330 23.62158 1229 ft 92 kts 74°
2026-04-21 19:02 38.30800 23.62677 1079 ft 95 kts 16°
2026-04-21 19:02 38.31457 23.62741 1000 ft 94 kts
2026-04-21 19:02 38.32122 23.62716 945 ft 94 kts 349°
2026-04-21 19:02 38.32604 23.62181 851 ft 92 kts 304°
2026-04-21 19:03 38.32854 23.61452 782 ft 86 kts 287°
2026-04-21 19:03 38.33016 23.60740 713 ft 84 kts 284°
2026-04-21 19:03 38.33135 23.60041 679 ft 78 kts 282°
2026-04-21 19:03 38.33258 23.59367 610 ft 75 kts 282°
2026-04-21 19:04 38.33373 23.58724 555 ft 74 kts 282°
2026-04-21 19:04 38.33485 23.58101 503 ft 71 kts 282°
2026-04-21 19:04 38.33588 23.57533 469 ft 55 kts 283°
2026-04-21 19:04 38.33662 23.57119 469 ft 35 kts 284°
2026-04-21 19:05 38.33689 23.56959 470 ft 12 kts 278°
2026-04-21 19:05 38.33641 23.56914 470 ft 11 kts 170°
2026-04-21 19:05 38.33565 23.56930 470 ft 8 kts 165°
2026-04-21 19:05 38.33503 23.56944 470 ft 11 kts 170°
2026-04-21 19:06 38.33414 23.56964 469 ft 15 kts 171°
2026-04-21 19:06 38.33304 23.56969 469 ft 13 kts 163°
2026-04-21 19:06 38.33221 23.57016 468 ft 13 kts 152°
2026-04-21 19:06 38.33173 23.57030 468 ft 5 kts 147°
2026-04-21 19:07 38.33172 23.57040 468 ft 0 kts 63°